This is the latest recevied weather packets stored in our database for station/object K2HF. If no packets are shown the sender has not sent any weather packets the latest 1 day(s).
| Time | Temp. | Humidity | Pressure | Rain* | Wind** | Luminosity | Snow |
|---|---|---|---|---|---|---|---|
| 1778026434 | 16.11° C | 42% | 1009.3 hPa | 0 mm | - | - | - |
| 1778026372 | 16.11° C | 42% | 1009.2 hPa | 0 mm | - | - | - |
| 1778026253 | 16.11° C | 42% | 1009.3 hPa | 0 mm | - | - | - |
| 1778025768 | 16.11° C | 39% | 1009.2 hPa | 0 mm | - | - | - |
| 1778025347 | 16.11° C | 38% | 1009.2 hPa | 0 mm | - | - | - |
| 1778025287 | 16.11° C | 38% | 1009.4 hPa | 0 mm | - | - | - |
| 1778025226 | 16.11° C | 38% | 1009.3 hPa | 0 mm | - | - | - |
| 1778025166 | 16.11° C | 38% | 1009.3 hPa | 0 mm | - | - | - |
| 1778025107 | 16.11° C | 38% | 1009.3 hPa | 0 mm | - | - | - |
| 1778024742 | 16.11° C | 39% | 1009.3 hPa | 0 mm | - | - | - |
| 1778024683 | 16.11° C | 39% | 1009.3 hPa | 0 mm | - | - | - |
| 1778024620 | 16.11° C | 40% | 1009.2 hPa | 0 mm | - | - | - |
| 1778024072 | 16.11° C | 41% | 1009 hPa | 0 mm | - | - | - |
| 1778023770 | 16.67° C | 43% | 1009.1 hPa | 0 mm | - | - | - |
| 1778023167 | 16.67° C | 44% | 1009 hPa | 0 mm | - | - | - |
| 1778023049 | 16.67° C | 45% | 1008.9 hPa | 0 mm | - | - | - |
| 1778022498 | 16.67° C | 46% | 1009 hPa | 0 mm | - | - | - |
| 1778021843 | 17.22° C | 49% | 1008.8 hPa | 0 mm | - | - | - |
| 1778020989 | 16.67° C | 49% | 1008.7 hPa | 0 mm | - | - | - |
| 1778020928 | 16.67° C | 48% | 1009 hPa | 0 mm | - | - | - |
| 1778020749 | 16.67° C | 50% | 1008.7 hPa | 0 mm | - | - | - |
| 1778020629 | 16.67° C | 50% | 1008.7 hPa | 0 mm | - | - | - |
| 1778020569 | 16.67° C | 51% | 1008.7 hPa | 0 mm | - | - | - |
| 1778020086 | 17.22° C | 57% | 1008.7 hPa | 0 mm | - | - | - |
| 1778019846 | 17.78° C | 57% | 1008.7 hPa | 0 mm | - | - | - |
* Rain latest hour (hover to see other rain measurements)
** Current wind speed in m/s (hover to see current wind gust speed)